Regional Weather Roundup
Issued by NWS

Home | Current Version | Previous Version | Text Only | Print | Product List | Glossary On
Versions: 1 2 3 4 5 6 7 8 9 10 11 12 13 14 15 16 17 18 19 20 21 22 23 24 25 26 27 28 29 30 31 32 33 34 35 36 37 38 39 40 41 42 43 44 45 46 47 48 49 50
000
ASUS43 KOAX 310310
RWRNE

WEATHER ROUNDUP FOR NEBRASKA
NATIONAL WEATHER SERVICE OMAHA NE
1000 PM CDT THU JUL 30 2015

NOTES: SATELLITE DATA IS BEING USED TO AUGMENT CLOUD COVER ABOVE
       12000 FEET.
       "FAIR" INDICATES FEW OR NO CLOUDS BELOW 12,000 FEET WITH NO
       SIGNIFICANT WEATHER AND/OR OBSTRUCTIONS TO VISIBILITY.

  * THESE STATIONS DO NOT REPORT WEATHER SUCH AS RAIN...SNOW OR FOG.

NEZ001>004-019>022-054>056-310400-
NEBRASKA PANHANDLE

CITY           SKY/WX    TMP DP  RH WIND       PRES   REMARKS
SCOTTSBLUFF    CLEAR     72  52  49 NE9       30.23R
ALLIANCE       CLEAR     68  51  54 NE9       30.24R
CHADRON        CLEAR     73  48  41 NE3       30.20R
KIMBALL        CLEAR     69  56  63 S7        30.29R
SIDNEY         CLEAR     67  60  78 S7        30.28R
$$

NEZ057>060-069>072-079>082-310400-
SOUTHWEST NEBRASKA

CITY           SKY/WX    TMP DP  RH WIND       PRES   REMARKS
NORTH PLATTE   MOCLDY    76  62  62 S6        30.19R
IMPERIAL       MOCLDY    76  58  53 S8        30.21R
LEXINGTON      MOCLDY    75  67  76 S6        30.18R
MCCOOK         CLOUDY    78  62  57 SE6       30.19R
OGALLALA       RAIN      68  60  76 E10       30.25R
$$

NEZ005>010-023>029-035>040-094-310400-
NORTH CENTRAL NEBRASKA

CITY           SKY/WX    TMP DP  RH WIND       PRES   REMARKS
VALENTINE      CLEAR     76  51  41 E5        30.18R
AINSWORTH      CLEAR     73  55  53 E3        30.18R
BROKEN BOW     PTCLDY    73  67  81 CALM      30.18R
O`NEILL        PTCLDY    76  68  77 NE6       30.14R
ORD            PTCLDY    73  66  78 S7        30.13R
THEDFORD       CLEAR     70  60  72 CALM      30.21R
$$

NEZ041-046>049-061>064-073>077-083>087-310400-
SOUTH CENTRAL NEBRASKA

CITY           SKY/WX    TMP DP  RH WIND       PRES   REMARKS
GRAND ISLAND   MOCLDY    76  67  73 S5        30.16R
AURORA         PTCLDY    74  69  84 S3        30.16R
HASTINGS       PTCLDY    78  66  66 SE9       30.17R
HEBRON         CLEAR     73  67  81 S3        30.15R
HOLDREGE       PTCLDY    75  67  76 SE5       30.19R
KEARNEY *      PTCLDY    75  66  73 SE5       30.17R
YORK           PTCLDY    73  68  83 S5        30.16R
$$

NEZ011>018-030>034-042>045-310400-
NORTHEAST NEBRASKA

CITY           SKY/WX    TMP DP  RH WIND       PRES   REMARKS
NORFOLK        MOCLDY    76  66  71 CALM      30.12R
ALBION         CLEAR     74  66  75 SE5       30.13R
BLAIR          CLEAR     73  66  78 S5        30.13R
COLUMBUS *     CLEAR     75  64  69 S5        30.13R
FREMONT        CLEAR     77  65  66 S3        30.12R
TEKAMAH        PTCLDY    72  70  93 CALM      30.11R
WAYNE          PTCLDY    73  68  85 CALM      30.13R
$$

NEZ050>053-065>068-078-088>093-310400-
SOUTHEAST NEBRASKA

CITY           SKY/WX    TMP DP  RH WIND       PRES   REMARKS
LINCOLN        CLEAR     73  61  65 S6        30.14R
OMAHA EPPLEY   PTCLDY    76  67  73 SE3       30.12R
BEATRICE       PTCLDY    76  62  62 S5        30.15R
FALLS CITY     CLEAR     75  65  70 S5        30.14R
NEBRASKA CITY  CLEAR     72  64  74 SW6       30.14R
PLATTSMOUTH    CLEAR     74  65  71 CALM      30.13R
$$

NEZ044-045-051>053-067-310400-
OMAHA AREA

CITY           SKY/WX    TMP DP  RH WIND       PRES   REMARKS
OMAHA EPPLEY   PTCLDY    76  67  73 SE3       30.12R
BLAIR          CLEAR     73  66  78 S5        30.13R
FREMONT        CLEAR     77  65  66 S3        30.12R
MILLARD        CLEAR     75  67  76 CALM      30.12R
OFFUTT AFB     CLEAR     69  66  90 S5        30.11R
PLATTSMOUTH    CLEAR     74  65  71 CALM      30.13R
WAHOO          FAIR      74  67  80 SE3       30.13R
$$



USA.gov is the U.S. government's official web portal to all federal, state and local government web resources and services.